Vicksburg, LA

7:26 AM CDT on June 26, 2017 (GMT -0500)
Vicksburg Tallulah Regional

Weather History for KTVR - January, 2014

Change the Weather History Date:

Monday, January 27, 2014

  Actual Average Record
Temperature  
Mean Temperature 39 °F 46 °F  
Max Temperature 51 °F 56 °F 80 °F (2009)
Min Temperature 27 °F 36 °F 20 °F (1985)
Degree Days  
Heating Degree Days 26 19  
Month to date heating degree days 635 534  
Since 1 July heating degree days 1760 1471  
Cooling Degree Days 0 0  
Month to date cooling degree days 0 0  
Year to date cooling degree days 0 0  
Moisture  
Dew Point 28 °F    
Average Humidity 63    
Maximum Humidity 100    
Minimum Humidity 25    
Precipitation  
Precipitation 0.00 in 0.19 in 1.74 in (1994)
Month to date precipitation 2.26 4.33  
Year to date precipitation 2.26 4.33  
Sea Level Pressure  
Sea Level Pressure 30.06 in    
Wind  
Wind Speed 15 mph (North)    
Max Wind Speed 28 mph    
Max Gust Speed 39 mph    
Visibility 8 miles    
Events Fog    
T = Trace of Precipitation, MM = Missing Value Source: NWS Daily Summary

Daily Weather History Graph

Daily Weather History Graph

Search for Another Location

Airport or City:

Trip Planner

Search our weather history database for the weather conditions in past years. The results will help you decide how hot, cold, wet, or windy it might be!

Date:

Astronomy

Jan. 27, 2014 Rise Set
Actual Time 7:01 AM CST 5:32 PM CST
Civil Twilight 6:35 AM CST 5:58 PM CST
Nautical Twilight 6:05 AM CST 6:28 PM CST
Astronomical Twilight 5:36 AM CST 6:57 PM CST
Moon 3:40 AM CST (1/27) 2:21 PM CST (1/27)
Length of Visible Light 11h 23m
Length of Day
10h 31m
Waning Crescent, 14% of the Moon is Illuminated
Jan 27
Waning Crescent
Jan 30
New
Feb 6
First Quarter
Feb 14
Full
Feb 22
Last Quarter

Hourly Weather History & Observations

Time (CST) Temp. Windchill Dew Point Humidity Pressure Visibility Wind Dir Wind Speed Gust Speed Precip Events Conditions
12:53 AM 45.0 °F - 39.0 °F 80% 29.88 in 10.0 mi Calm Calm - N/A   Scattered Clouds
1:53 AM 43.0 °F 41.3 °F 39.0 °F 86% 29.88 in 10.0 mi SE 3.5 mph - N/A   Clear
2:53 AM 42.1 °F - 39.9 °F 92% 29.89 in 10.0 mi Calm Calm - N/A   Partly Cloudy
3:49 AM 42.8 °F - 41.0 °F 93% 29.87 in 10.0 mi Calm Calm - N/A   Mostly Cloudy
3:53 AM 42.1 °F - 39.9 °F 92% 29.89 in 10.0 mi Calm Calm - N/A   Mostly Cloudy
4:01 AM 43.0 °F - 39.9 °F 89% 29.87 in 10.0 mi Calm Calm - N/A   Scattered Clouds
4:51 AM 39.2 °F - 37.4 °F 93% 29.88 in 1.8 mi Calm Calm - N/A   Clear
4:53 AM 39.0 °F - 37.9 °F 96% 29.91 in 1.5 mi Calm Calm - N/A   Clear
5:21 AM 39.0 °F 36.8 °F 37.9 °F 96% 29.90 in 0.5 mi NE 3.5 mph - N/A Fog Fog
5:53 AM 39.0 °F 36.8 °F 39.0 °F 100% 29.94 in 0.2 mi North 3.5 mph - N/A Fog Fog
6:00 AM 39.0 °F 35.7 °F 37.9 °F 96% 29.93 in 0.2 mi North 4.6 mph - N/A Fog Fog
6:06 AM 39.9 °F 36.7 °F 39.0 °F 97% 29.93 in 1.0 mi North 4.6 mph - N/A   Mostly Cloudy
6:14 AM 41.0 °F 37.1 °F 39.9 °F 96% 29.94 in 3.0 mi NW 5.8 mph - N/A   Mostly Cloudy
6:31 AM 48.0 °F - 46.0 °F 93% 29.95 in 8.0 mi NNW 8.1 mph - N/A   Mostly Cloudy
6:33 AM 48.9 °F - 46.9 °F 93% 29.95 in 9.0 mi NNW 9.2 mph - N/A   Mostly Cloudy
6:53 AM 50.0 °F - 48.0 °F 93% 29.98 in 10.0 mi North 9.2 mph - N/A   Overcast
7:20 AM 48.9 °F - 44.1 °F 83% 29.98 in 10.0 mi North 16.1 mph 26.5 mph N/A   Mostly Cloudy
7:29 AM 46.9 °F - 39.0 °F 74% 30.00 in 10.0 mi North 24.2 mph 32.2 mph N/A   Scattered Clouds
7:53 AM 45.0 °F 36.6 °F 34.0 °F 65% 30.04 in 10.0 mi North 21.9 mph 34.5 mph N/A   Clear
8:53 AM 45.0 °F 36.0 °F 28.9 °F 53% 30.09 in 10.0 mi North 25.3 mph 33.4 mph N/A   Clear
9:53 AM 46.9 °F - 27.0 °F 46% 30.12 in 10.0 mi North 16.1 mph 24.2 mph N/A   Clear
10:53 AM 46.0 °F 38.5 °F 25.0 °F 44% 30.15 in 10.0 mi North 19.6 mph 31.1 mph N/A   Clear
11:53 AM 48.0 °F - 24.1 °F 39% 30.15 in 10.0 mi North 24.2 mph 31.1 mph N/A   Partly Cloudy
12:53 PM 46.0 °F 38.3 °F 17.1 °F 31% 30.15 in 10.0 mi North 20.7 mph 26.5 mph 0.00 in   Overcast
1:53 PM 46.0 °F 39.0 °F 18.0 °F 33% 30.15 in 10.0 mi North 17.3 mph 26.5 mph N/A   Clear
2:53 PM 43.0 °F 33.5 °F 12.9 °F 30% 30.16 in 10.0 mi North 24.2 mph 35.7 mph N/A   Partly Cloudy
3:53 PM 39.9 °F 30.0 °F 7.0 °F 26% 30.18 in 10.0 mi North 21.9 mph 34.5 mph N/A   Scattered Clouds
4:53 PM 37.9 °F 27.3 °F 7.0 °F 28% 30.22 in 10.0 mi North 21.9 mph 29.9 mph N/A   Overcast
5:53 PM 35.1 °F 24.5 °F 5.0 °F 28% 30.23 in 10.0 mi NNE 18.4 mph 29.9 mph N/A   Overcast
6:53 PM 33.1 °F 21.2 °F 5.0 °F 31% 30.26 in 10.0 mi North 20.7 mph 28.8 mph N/A   Clear
7:53 PM 30.9 °F 19.1 °F 5.0 °F 33% 30.29 in 10.0 mi North 18.4 mph 28.8 mph N/A   Clear
8:53 PM 28.9 °F 16.9 °F 5.0 °F 36% 30.30 in 10.0 mi North 17.3 mph 25.3 mph N/A   Clear
9:53 PM 28.0 °F 17.5 °F 5.0 °F 38% 30.30 in 10.0 mi North 12.7 mph 23.0 mph N/A   Clear
10:53 PM 27.0 °F 15.2 °F 5.0 °F 39% 30.29 in 10.0 mi North 15.0 mph - N/A   Clear
11:53 PM 27.0 °F 14.3 °F 5.0 °F 39% 30.31 in 10.0 mi North 17.3 mph 23.0 mph N/A   Clear